This is the latest recevied weather packets stored in our database for station/object W4TJP. If no packets are shown the sender has not sent any weather packets the latest 10 day(s).
| Time | Temp. | Humidity | Pressure | Rain* | Wind** | Luminosity | Snow |
|---|---|---|---|---|---|---|---|
| 1777811305 | 4.44° C | 99% | 1020.7 hPa | 0 mm | - | 67 W/m² | - |
| 1777811003 | 3.89° C | 99% | 1020.6 hPa | 0 mm | - | 63 W/m² | - |
| 1777810700 | 3.33° C | 99% | 1020.8 hPa | 0 mm | - | 75 W/m² | - |
| 1777810397 | 2.78° C | 99% | 1020.5 hPa | 0 mm | - | 59 W/m² | - |
| 1777810092 | 2.78° C | 99% | 1020.5 hPa | 0 mm | - | 51 W/m² | - |
| 1777809790 | 2.78° C | 99% | 1020.6 hPa | 0 mm | - | 37 W/m² | - |
| 1777809488 | 2.78° C | 99% | 1020.4 hPa | 0 mm | - | 40 W/m² | - |
| 1777809185 | 2.78° C | 99% | 1020.2 hPa | 0 mm | - | 39 W/m² | - |
| 1777808883 | 2.78° C | 99% | 1020.5 hPa | 0 mm | - | 31 W/m² | - |
| 1777808579 | 2.78° C | 99% | 1020.2 hPa | 0 mm | - | 31 W/m² | - |
| 1777808276 | 2.78° C | 99% | 1019.9 hPa | 0 mm | - | 24 W/m² | - |
| 1777807975 | 2.78° C | 99% | 1020.1 hPa | 0 mm | - | 22 W/m² | - |
| 1777807672 | 2.78° C | 99% | 1020 hPa | 0 mm | - | 18 W/m² | - |
| 1777807370 | 3.33° C | 99% | 1019.9 hPa | 0 mm | - | 13 W/m² | - |
| 1777807065 | 2.78° C | 99% | 1020 hPa | 0 mm | - | 12 W/m² | - |
| 1777806763 | 2.78° C | 99% | 1020 hPa | 0 mm | - | 9 W/m² | - |
| 1777806458 | 2.78° C | 99% | 1019.8 hPa | 0 mm | - | 6 W/m² | - |
| 1777806155 | 3.33° C | 99% | 1019.8 hPa | 0 mm | - | 5 W/m² | - |
| 1777805852 | 3.33° C | 99% | 1019.5 hPa | 0 mm | - | 2 W/m² | - |
| 1777805549 | 3.33° C | 99% | 1019.5 hPa | 0 mm | - | 1 W/m² | - |
| 1777805246 | 3.33° C | 99% | 1019.6 hPa | 0 mm | - | 0 W/m² | - |
| 1777804944 | 3.33° C | 99% | 1019.6 hPa | 0 mm | - | 0 W/m² | - |
| 1777804642 | 3.33° C | 99% | 1019.4 hPa | 0 mm | - | 0 W/m² | - |
| 1777804340 | 3.33° C | 99% | 1019.5 hPa | 0 mm | - | 0 W/m² | - |
| 1777804036 | 3.33° C | 99% | 1019.4 hPa | 0 mm | - | 0 W/m² | - |
* Rain latest hour (hover to see other rain measurements)
** Current wind speed in m/s (hover to see current wind gust speed)